Location: Wien
(48.2082°N, 16.3738°E)
Time: 08:25:33
(UTC+01:00)

Tiangong 2 - Visible Passes

Search period start: 21 March 2019 00:00
Search period end: 31 March 2019 00:00
Orbit: 379 x 390 km, 42.8° (Epoch: 21 March)

Date Brightness Start Highest point End Pass type
(mag) Time Alt. Az. Time Alt. Az. Time Alt. Az.
21 Mar 3.9 03:35:00 12° SE 03:35:00 12° SE 03:35:21 10° SE visible
21 Mar 3.3 05:07:14 11° SW 05:08:43 14° SSW 05:10:24 10° S visible
22 Mar 3.3 04:10:42 15° S 04:10:42 15° S 04:11:47 10° SSE visible
